Regional Weather Roundup
Issued by NWS

Home | Current Version | Previous Version | Graphics & Text | Print | Product List | Glossary On
Versions: 1 2 3 4 5 6 7 8 9 10 11 12 13 14 15 16 17 18 19 20 21 22 23 24 25 26 27 28 29 30 31 32 33 34 35 36 37 38 39 40 41 42 43 44 45 46 47 48 49 50
000
ASUS43 KMPX 291510
RWRMN
WEATHER ROUNDUP FOR MINNESOTA
NATIONAL WEATHER SERVICE TWIN CITIES/CHANHASSEN MN
1000 AM CDT SUN MAR 29 2015


NOTE: "FAIR" INDICATES FEW OR NO CLOUDS BELOW 12,000 FEET WITH NO
SIGNIFICANT WEATHER AND/OR OBSTRUCTIONS TO VISIBILITY. N/A MEANS
CURRENT SKY AND/OR WEATHER CONDITIONS ARE NOT AVAILABLE.

MNZ060>063-068>070-291600-
   Twin Cities Metro

CITY           SKY/WX    TMP DP  RH WIND       PRES   REMARKS
TWIN CITIES    PTSUNNY   42  35  76 SW15G21   29.58F
ST PAUL        CLOUDY    42  35  76 SW13G18   29.58F
CRYSTAL        CLOUDY    42  35  76 SW12G21   29.55F
BLAINE         CLOUDY    43  37  81 SW10G18   29.54F
LAKEVILLE      MOSUNNY   39  34  81 SW9G16    29.59F
EDEN PRAIRIE   CLOUDY    41  34  76 SW10      29.57F
SOUTH ST PAUL  MOSUNNY   42  35  78 SW12      29.58F
LAKE ELMO      CLOUDY    37  36  93 S12       29.57F
$$
MNZ001>005-007-008-013>017-022>024-027-028-291600-
   Northwest Minnesota

CITY           SKY/WX    TMP DP  RH WIND       PRES   REMARKS
BEMIDJI        CLOUDY    36  34  91 NW30G36   29.57R
HALLOCK        CLOUDY    37  34  87 NW28G38   29.74R
ROSEAU         CLOUDY    36  30  80 NW22G33   29.65R
WARROAD        CLOUDY    34  30  86 NW28G38   29.62R WCI  20
THIEF RVR FALL CLOUDY    37  32  81 NW30G37   29.70R
CROOKSTON      CLOUDY    37  34  87 N32G44    29.75R
FOSSTON        CLOUDY    36  32  87 NW21G35   29.67R
DETROIT LAKES  CLOUDY    36  34  93 NW30G41   29.68R
MOORHEAD       PTSUNNY   39  37  93 NW32G41   29.76R
PARK RAPIDS    CLOUDY    39  35  86 NW26G47   29.56R
MAHNOMEN       CLOUDY    36  33  90 NW32G43   29.68R
$$
MNZ006-009>011-018-025>026-291600-
   North Central Minnesota

CITY           SKY/WX    TMP DP  RH WIND       PRES   REMARKS
BAUDETTE       CLOUDY    35  31  85 NW28G39   29.55R WCI  22
FLAG ISLAND    CLOUDY    34  30  86 NW29      29.59R WCI  20
INTL FALLS     LGT RAIN  36  33  89 NW17G26   29.47R
WASKISH        CLOUDY    36  34  93 NW20G28   29.57R
BIG FORK       LGT RAIN  37  36  93 NW10G17   29.48R
LONGVILLE      DRIZZLE   37  37 100 NW12G21   29.50R
GRAND RAPIDS   CLOUDY    34  30  86 W8        29.48R WCI  27
CRANE LAKE     CLOUDY    34  32  93 SW7       29.44S WCI  28
ORR            CLOUDY    34  30  86 W3        29.42R FOG
COOK           LGT SNOW  34  32  93 SW7       29.45R WCI  28
WALKER         DRIZZLE   38  35  91 NW13G23   29.54R
$$
MNZ012-019>021-037-291600-
   Northeast Minnesota

CITY           SKY/WX    TMP DP  RH WIND       PRES   REMARKS
DULUTH         LGT SNOW  34  31  88 SW15      29.46F FOG     WCI  24
ELY            LGT SNOW  32  30  93 SW12      29.43S VSB 1   WCI  23
HIBBING        SNOW      33  31  92 W5        29.45S VSB 1/2 WCI  29
EVELETH        LGT SNOW  32  32 100 SW7       29.46S VSB 3/4 WCI  26
DULUTH HARBOR  RAIN      36  34  93 SW13      29.50F
TWO HARBORS    LGT SNOW  37  32  81 SW8       29.45F VSB 1
SILVER BAY     LGT RAIN  36  32  87 SW7       29.45F
GRAND MARAIS     N/A     33  32  96 W6        29.48F WCI  28
G MARAIS ARPRT LGT SNOW  28  25  86 S12G20    29.43F WCI  18
$$
MNZ029>031-032-039>041-046>048-054>057-064-291600-
   West Central Minnesota

CITY           SKY/WX    TMP DP  RH WIND       PRES   REMARKS
FERGUS FALLS   CLOUDY    37  37 100 NW32G41   29.72R
WHEATON        CLOUDY    39  34  81 NW31G39   29.78R
MORRIS         CLOUDY    41  37  87 NW33G43   29.68R
ALEXANDRIA     CLOUDY    38  34  85 NW26G45   29.63R
ELBOW LAKE     CLOUDY    37  34  90 NW28G37   29.70R
WADENA         CLOUDY    36  34  93 NW23G33   29.59R
GLENWOOD       LGT RAIN  39  36  87 NW30G37   29.62R
APPLETON       LGT RAIN  43  39  87 NW29G40   29.72R
BENSON         RAIN      43  37  81 N29G40    29.68R
ORTONVILLE     CLOUDY    41  36  81 NW26G44   29.75R
MADISON        RAIN      43  39  87 NW35G41   29.75R
WILLMAR        MIX PCPN  43  39  87 NW31G39   29.65R
$$
MNZ033>034-036-042>043-049>051-058-059-291600-
   Central Minnesota

CITY           SKY/WX    TMP DP  RH WIND       PRES   REMARKS
ST CLOUD       LGT RAIN  42  37  82 W15       29.51F
SAUK CENTRE    LGT RAIN  38  35  91 NW33G43   29.58R
PAYNESVILLE    RAIN      40  37  91 W30G38    29.59R
AITKIN         MIX PCPN  39  34  81 W3        29.48R
PINE RIVER     LGT RAIN  37  37 100 NW10G18   29.56R
BRAINERD       RAIN      37  35  92 NW21G31   29.52R FOG
STAPLES        LGT RAIN  37  37 100 NW23G31   29.55R
LONG PRAIRIE   LGT SNOW  36  34  93 W24G36    29.57R
LITTLE FALLS   LGT RAIN  43  37  81 W17G31    29.52R
LITCHFIELD     CLOUDY    45  43  93 W18G25    29.57S
BUFFALO        CLOUDY    43  36  75 SW8       29.55F
MAPLE LAKE     CLOUDY    44  41  86 SW14G20   29.54F
$$
MNZ037-044-045-052-053-291600-
   East Central Minnesota

CITY           SKY/WX    TMP DP  RH WIND       PRES   REMARKS
PRINCETON      CLOUDY    41  36  81 S10       29.51F
MORA           CLOUDY    36  32  87 SW7       29.52F
CAMBRIDGE      CLOUDY    39  30  70 S10G16    29.50F
RUSH CITY      CLOUDY    35  32  88 SW8       29.52F WCI  29
MOOSE LAKE     DRIZZLE   34  32  93 SW9       29.47F WCI  26
HINCKLEY       LGT RAIN  36  32  87 SW10G16   29.50F
CLOQUET        CLOUDY    34  32  93 SW12G20   29.47S FOG     WCI  25
MCGREGOR       CLOUDY    34  32  93 SW6       29.49R WCI  29
$$
MNZ071>073-080-081-089-090-097-098-291600-
   Southwest Minnesota

CITY           SKY/WX    TMP DP  RH WIND       PRES   REMARKS
MONTEVIDEO     LGT RAIN  43  39  87 N21G37    29.72R
GRANITE FALLS  DRIZZLE   44  40  85 W33G44    29.71R
CANBY          LGT RAIN  42  40  90 NW30G41   29.77R
MARSHALL       CLOUDY    43  36  75 NW32G49   29.73R
REDWOOD FALLS  CLOUDY    48  40  73 W29G40    29.65R
OLIVIA         PTSUNNY   45  41  87 NW28G37   29.63R
PIPESTONE      DRIZZLE   46  39  76 NW24G37   29.76R
WINDOM         PTSUNNY   52  37  58 W28G40    29.69R
WORTHINGTON    PTSUNNY   52  37  58 W33G43    29.74R
JACKSON        SUNNY     50  37  62 W23G41    29.70S
TRACY          CLOUDY    47  39  72 NW35G45   29.73R
SLAYTON        CLOUDY    47  37  67 W28G37    29.73R
$$
MNZ065>067-074>077-082>085-091>093-291600-
   South Central Minnesota

CITY           SKY/WX    TMP DP  RH WIND       PRES   REMARKS
MANKATO        PTSUNNY   46  37  71 W16       29.64S
NEW ULM        MOSUNNY   52  39  62 W28G40    29.63R
ST JAMES       SUNNY     54  39  58 W30G39    29.67R
FAIRMONT       SUNNY     52  37  58 W29       29.68R
GLENCOE        CLOUDY    45  40  82 W9        29.58S
FARIBAULT      SUNNY     41  36  81 SW10G16   29.62F
OWATONNA       SUNNY     39  34  81 SW15      29.64F
WASECA         SUNNY     43  37  81 SW15      29.65F
ALBERT LEA     SUNNY     45  37  76 SW13G23   29.66F
$$
MNZ078>079-086>088-094>096-291600-
   Southeast Minnesota

CITY           SKY/WX    TMP DP  RH WIND       PRES   REMARKS
ROCHESTER      CLOUDY    35  31  85 SW28G35   29.66F WCI  22
RED WING       CLOUDY    39  32  75 SW14G20   29.61F
STANTON        MOSUNNY   41  34  77 SW18      29.60F
DODGE CENTER   PTSUNNY   36  34  93 S20G26    29.64F
WINONA         CLOUDY    37  32  81 SW13G28   29.69F
AUSTIN         SUNNY     37  36  93 SW16G25   29.67F
PRESTON        CLOUDY    33  31  92 SW22G30   29.70F WCI  21
$$
ABBREVIATIONS USED IN REMARKS
   TC - TEMPERATURES IN CELSIUS
  WCI - WIND CHILL INDEX
   HX - HEAT INDEX
  VSB - VISIBILITY
$$



USA.gov is the U.S. government's official web portal to all federal, state and local government web resources and services.